Weather in Echternach

Luxembourg     49°48′36″N   6°25′15″E
temp.,
°C
wind,
m/s
gust,
m/s
humid.,
%
clouds,
%
prec.,
mm/h
press.,
hPa
HPBL,
m
10 august, wed
wed1023:00+18nne33540 0.0 102437
02:00+15ne37641 0.0 1025122
05:00+14nne34713 0.0 102452
08:00+17ne35575 0.0 1025151
11:00+26ene453219 0.0 10241354
14:00+30e562498 0.0 10222357
17:00+30e56225 0.0 10212450
20:00+27e47250 0.0 1020444
11 august, thu
thu1123:00+18ne22420 0.0 102212
02:00+16ne33512 0.0 102221
05:00+14ne22580 0.0 102215
08:00+17ne23480 0.0 1022107
11:00+27e45270 0.0 10211508
14:00+30e67205 0.0 10192377
17:00+31e67185 0.0 10182433
20:00+28e4723100 0.0 1018305
12 august, fri
fri1223:00+19ne223899 0.0 101911
02:00+17ne224654 0.0 101914
05:00+15ne22505 0.0 101911
08:00+18ne234360 0.0 101998
11:00+28ene4524100 0.0 10171006
14:00+31e4519100 0.0 10162419
17:00+31e5619100 0.0 10152558
20:00+27ese2323100 0.0 101550
13 august, sat
sat1323:00+18ene22405 0.0 101611
02:00+15ne22482 0.0 101711
05:00+14ne22554 0.0 101717
08:00+17ne23470 0.0 1018110
11:00+26ene56300 0.0 10181593
14:00+29e55220 0.0 10162343
17:00+30e44190 0.0 10152540
20:00+27e34250 0.0 101589
14 august, sun
sun1423:00+19e1141100 0.0 101611
02:00+17nne1248100 0.0 101611
05:00+15ne2252100 0.0 101511
08:00+19nne224399 0.0 101587
11:00+28e34266 0.0 1014959
14:00+32ese55215 0.0 10122825
17:00+33se441857 0.0 10103452
20:00+29se3626100 0.0 1009158